SL-14 DEB, 45312

Orbit data source: Space-Track

SL-14 DEB, 45312 is space debris in LEO originally from a launch on Thu, 15 Aug 1991 UTC launched from the Plesetsk Missile And Space Complex (PKMTR). Debris objects in space refer to the collection of defunct objects orbiting the Earth. Examples of debris include non-operational satellites, rocket bodies, and fragments generated from explosions, collisions, or faulty payload assembly.

Loading next visibility...
Identifier
45312, 1991-056BA
Orbit
LEO
Country
Flag of CISCIS
Related business
Manufacturer
Unknown
Mission
Spacecraft
Bus & Motor
Unknown
Mass
Unknown
Launch date (UTC)
1991-08-15 (35 years ago)
Launch vehicle
Unknown
Launch site
Plesetsk Missile And Space Complex (PKMTR)
Object type
Payload
Rocket body
Debris
Shape & HBR
Unknown shape, 0.1 m
Radar Cross Section
Small (<0.1 m²)

Expand to show TLE details & history
Last TLE update: 21 hours ago

TLE from 21 hours ago
0 SL-14 DEB
1 45312U 91056BA  26126.11600108  .00000689  00000-0  16715-2 0  9995
2 45312  82.5175 156.3695 0011633 188.8123 171.2798 13.20443015299003
Epoch: 2026-05-06T02:47Z
TLE epoch observation values (Epoch: 2026-05-06T02:47:02.493Z)
Latitude
-0.00009°
Longitude
-109.37202°
Altitude
1,194.536 km
Speed
7.252 km/s
True Right ascension
10h 25m 28s
True Declination
0° 00' 00"
Sunlit
Object was in daylight at epoch
Visualization orbit readout
Latitude
Unknown
Longitude
Unknown
Altitude
Unknown
Speed
Unknown
Apparent Right ascension
Unknown
Apparent Declination
Unknown
Sunlit
N/A
Visualization observer readout
Local Sidereal Time
07:40:44
Azimuth
Unknown
Elevation
Unknown
Doppler factor
Unknown
Orbital elements
Apogee altitude
1,189.062 km
Perigee altitude
1,171.477 km
Semi-major axis
7,558.406 km
Eccentricity
0.00116
Inclination
82.5175°
RAAN
156.3695°
Arg. of periapsis
188.8123°
True anomaly
171.29998°
Mean anomaly
171.2798°
Eccentric anomaly
171.28989°
Mean motion
3.30292 °/min
Orbital period
108.99 mins
BSTAR
0.0016715
Loading maneuver chart data...
Computing Atmospheric mass density...
Loading historical data...
Loading historical data...
Loading historical data...
Loading historical data...
Loading historical data...
Loading historical data...
Loading historical data...

Documentation

Showing up to 5 results
|